Date String (YYYY-MM-DD hh:mm:ss) UTC,Instrument flags,Ambient pressure (hPa),Sample flow (lpm),Bypass flow (lpm),Sample temperature (°C),Ambient temperature (°C),ASC tube jacket temperature (°C),LED temperature (°C),Box temperature (°C),Sample RH (%),Span deviation,Mass concentration (μg/m³),Mass concentration (μg/m³),Mass concentration (μg/m³)
DateTimeUTC,F1_M11,P_M11,Q1_M11,Q2_M11,T1_M11,T2_M11,T3_M11,T4_M11,T5_M11,U1_M11,ZSPAN_M11,X0_M11,X2_M11,X1_M11
2022-11-29 03:00:00,,0811.7,5.00,0.00,21.7,20.6,00.0,30.7,23.7,13.9,0000.0,0008.73,0003.30,0002.44
2022-11-29 03:01:00,,0811.6,5.00,0.00,21.7,20.6,00.0,30.7,23.7,14.0,0000.0,0008.69,0003.27,0002.41
2022-11-29 03:02:00,,0811.6,5.00,0.00,21.7,20.6,00.0,30.7,23.6,14.0,0000.0,0008.72,0003.25,0002.39
2022-11-29 03:03:00,,0811.6,5.00,0.00,21.7,20.5,00.0,30.7,23.6,14.0,0000.0,0008.62,0003.24,0002.38
2022-11-29 03:04:00,,0811.6,5.00,0.00,21.7,20.5,00.0,30.7,23.7,14.0,0000.0,0008.75,0003.27,0002.38
2022-11-29 03:05:00,,0811.7,5.00,0.00,21.7,20.5,00.0,30.7,23.6,14.0,0000.0,0008.50,0003.28,0002.38
2022-11-29 03:06:00,,0811.7,5.00,0.00,21.7,20.5,00.0,30.7,23.6,14.0,0000.0,0008.20,0003.28,0002.39
2022-11-29 03:07:00,,0811.7,5.01,0.00,21.7,20.5,00.0,30.7,23.6,14.0,0000.0,0008.48,0003.27,0002.38
2022-11-29 03:08:00,,0811.7,5.00,0.00,21.7,20.5,00.0,30.7,23.6,14.0,0000.0,0009.00,0003.28,0002.37
2022-11-29 03:09:00,,0811.6,5.00,0.00,21.7,20.5,00.0,30.7,23.6,14.0,0000.0,0008.69,0003.27,0002.39
2022-11-29 03:10:00,,0811.6,5.00,0.00,21.7,20.5,00.0,30.7,23.6,13.9,0000.0,0008.34,0003.25,0002.42
2022-11-29 03:11:00,,0811.6,4.99,0.00,21.7,20.5,00.0,30.7,23.6,14.0,0000.0,0008.49,0003.26,0002.44
2022-11-29 03:12:00,,0811.7,5.00,0.00,21.7,20.7,00.0,30.7,23.7,13.9,0000.0,0008.51,0003.28,0002.46
2022-11-29 03:13:00,,0811.7,5.02,0.00,21.8,21.4,00.0,30.6,23.8,13.9,0000.0,0008.81,0003.26,0002.47
2022-11-29 03:14:00,,0811.7,4.99,0.00,21.9,22.2,00.0,30.6,24.0,13.9,0000.0,0008.85,0003.26,0002.49
2022-11-29 03:15:00,,0811.7,4.99,0.00,22.0,22.1,00.0,30.7,24.1,13.8,0000.0,0008.78,0003.23,0002.50
2022-11-29 03:16:00,,0811.7,5.01,0.00,22.0,21.8,00.0,30.8,24.1,13.8,0000.0,0009.56,0003.21,0002.51
2022-11-29 03:17:00,,0811.6,5.00,0.00,22.0,21.5,00.0,30.8,24.0,13.7,0000.0,0009.90,0003.18,0002.53
2022-11-29 03:18:00,,0811.7,5.00,0.00,22.0,21.4,00.0,30.8,24.0,13.6,0000.0,0009.55,0003.17,0002.54
2022-11-29 03:19:00,,0811.7,5.00,0.00,22.0,21.2,00.0,30.9,24.0,13.5,0000.0,0008.90,0003.11,0002.54
2022-11-29 03:20:00,,0811.7,5.00,0.00,22.0,21.1,00.0,30.9,23.9,13.6,0000.0,0008.75,0003.07,0002.54
2022-11-29 03:21:00,,0811.7,5.01,0.00,22.0,21.0,00.0,30.9,23.9,13.6,0000.0,0008.45,0003.09,0002.55
2022-11-29 03:22:00,,0811.7,5.00,0.00,22.0,20.9,00.0,30.9,23.9,13.5,0000.0,0007.86,0003.09,0002.56
2022-11-29 03:23:00,,0811.7,5.00,0.00,22.0,20.8,00.0,30.9,23.9,13.4,0000.0,0007.83,0003.11,0002.57
2022-11-29 03:24:00,,0811.7,5.00,0.00,22.0,20.8,00.0,30.9,23.9,13.5,0000.0,0007.38,0003.14,0002.57
2022-11-29 03:25:00,,0811.7,5.00,0.00,22.0,20.7,00.0,30.9,23.8,13.5,0000.0,0007.82,0003.16,0002.56
2022-11-29 03:26:00,,0811.7,5.00,0.00,22.0,20.6,00.0,30.9,23.8,13.5,0000.0,0007.90,0003.19,0002.57
2022-11-29 03:27:00,,0811.7,5.00,0.00,22.0,20.7,00.0,30.9,23.8,13.6,0000.0,0007.03,0003.19,0002.57
2022-11-29 03:28:00,,0811.8,5.01,0.00,22.0,21.5,00.0,30.8,24.0,13.6,0000.0,0007.02,0003.21,0002.56
2022-11-29 03:29:00,,0811.9,4.99,0.00,22.1,22.3,00.0,30.8,24.2,13.6,0000.0,0007.46,0003.22,0002.56
2022-11-29 03:30:00,,0812.0,4.99,0.00,22.2,22.1,00.0,30.9,24.2,13.5,0000.0,0007.62,0003.23,0002.56
2022-11-29 03:31:00,,0812.0,5.00,0.00,22.2,21.8,00.0,31.0,24.2,13.5,0000.0,0007.88,0003.27,0002.55
2022-11-29 03:32:00,,0812.0,5.00,0.00,22.2,21.6,00.0,31.0,24.1,13.5,0000.0,0007.95,0003.31,0002.55
2022-11-29 03:33:00,,0812.0,4.99,0.00,22.2,21.4,00.0,31.0,24.1,13.5,0000.0,0007.91,0003.31,0002.55
2022-11-29 03:34:00,,0812.0,5.00,0.00,22.2,21.3,00.0,31.0,24.1,13.5,0000.0,0007.87,0003.30,0002.57
2022-11-29 03:35:00,,0812.0,5.01,0.00,22.2,21.1,00.0,31.1,24.0,13.5,0000.0,0007.76,0003.28,0002.59
2022-11-29 03:36:00,,0812.0,5.01,0.00,22.2,21.0,00.0,31.1,24.0,13.6,0000.0,0007.16,0003.28,0002.60
2022-11-29 03:37:00,,0812.1,5.00,0.00,22.2,21.0,00.0,31.1,24.0,13.6,0000.0,0007.10,0003.28,0002.62
2022-11-29 03:38:00,,0812.1,4.99,0.00,22.1,20.9,00.0,31.1,24.0,13.5,0000.0,0007.09,0003.29,0002.63
2022-11-29 03:39:00,,0812.2,5.00,0.00,22.2,20.9,00.0,31.1,24.0,13.5,0000.0,0006.23,0003.29,0002.63
2022-11-29 03:40:00,,0812.2,5.00,0.00,22.1,20.9,00.0,31.1,24.0,13.4,0000.0,0006.26,0003.29,0002.63
2022-11-29 03:41:00,,0812.1,5.00,0.00,22.1,20.9,00.0,31.1,24.0,13.3,0000.0,0006.47,0003.29,0002.63
2022-11-29 03:42:00,,0812.1,5.00,0.00,22.1,20.8,00.0,31.1,24.0,13.3,0000.0,0006.02,0003.26,0002.63
2022-11-29 03:43:00,,0812.2,5.00,0.00,22.1,20.8,00.0,31.1,24.0,13.3,0000.0,0005.75,0003.20,0002.62
2022-11-29 03:44:00,,0812.2,5.00,0.00,22.1,20.8,00.0,31.1,23.9,13.3,0000.0,0005.84,0003.19,0002.63
2022-11-29 03:45:00,,0812.3,5.01,0.00,22.1,20.8,00.0,31.1,23.9,13.4,0000.0,0005.99,0003.19,0002.60
2022-11-29 03:46:00,,0812.3,5.00,0.00,22.1,20.7,00.0,31.1,23.9,13.5,0000.0,0006.20,0003.20,0002.58
2022-11-29 03:47:00,,0812.3,5.00,0.00,22.0,20.8,00.0,31.1,23.9,13.5,0000.0,0006.10,0003.19,0002.58
2022-11-29 03:48:00,,0812.3,5.01,0.00,22.1,21.3,00.0,31.0,24.0,13.5,0000.0,0006.06,0003.21,0002.58
2022-11-29 03:49:00,,0812.3,4.99,0.00,22.2,22.2,00.0,31.0,24.2,13.5,0000.0,0006.35,0003.22,0002.58
2022-11-29 03:50:00,,0812.3,5.00,0.00,22.3,22.2,00.0,31.0,24.3,13.4,0000.0,0006.38,0003.23,0002.60
2022-11-29 03:51:00,,0812.2,4.99,0.00,22.3,21.9,00.0,31.1,24.3,13.4,0000.0,0006.56,0003.26,0002.64
2022-11-29 03:52:00,,0812.2,5.00,0.00,22.3,21.7,00.0,31.1,24.2,13.3,0000.0,0007.14,0003.30,0002.67
2022-11-29 03:53:00,,0812.2,5.00,0.00,22.3,21.5,00.0,31.1,24.2,13.3,0000.0,0007.44,0003.35,0002.70
2022-11-29 03:54:00,,0812.2,5.00,0.00,22.3,21.4,00.0,31.2,24.2,13.3,0000.0,0007.48,0003.38,0002.73
2022-11-29 03:55:00,,0812.2,5.00,0.00,22.3,21.3,00.0,31.2,24.2,13.4,0000.0,0007.42,0003.38,0002.74
2022-11-29 03:56:00,,0812.3,5.01,0.00,22.3,21.2,00.0,31.2,24.2,13.4,0000.0,0007.80,0003.38,0002.75
2022-11-29 03:57:00,,0812.3,5.01,0.00,22.3,21.1,00.0,31.2,24.1,13.4,0000.0,0008.68,0003.40,0002.77
2022-11-29 03:58:00,,0812.4,5.01,0.00,22.3,21.1,00.0,31.2,24.1,13.4,0000.0,0009.20,0003.41,0002.78
2022-11-29 03:59:00,,0812.4,4.99,0.00,22.3,21.1,00.0,31.2,24.1,13.4,0000.0,0009.21,0003.38,0002.78
